Airfield :
LOGIN :

Register | Disclaimer

   EN    FR    IT 

 










Legend :    VFR   Marginal VFR   IFR   Intensive IFR   Very Intensive IFR
Visi :
Ceiling :
>= 8 km
>= 3000ft
5 to 8 km
1000 to 3000 ft
1500m to 5 km
500 to 1000 ft
800 to 1500m
200 to 500 ft
< 800m
< 200 ft
Symbols :   Thunderstorms  Fog  Heavy snow  Heavy precipitations  Wind > 20 kt
SIGMETs :     Misc.  Thunderstorms  Icing  Turbulence  Mountain Waves  Volcanic Ashes






- Airport Elevation : 13 ft
- IATA code : LYX


EGMD - Lydd

CURRENT METAR :
  • 052220Z AUTO 36007KT 9999 NCD 02/01 Q1045

EXPIRED METARs :
  • 052120Z AUTO 35006KT 9999 NCD 02/01 Q1045
  • 052050Z AUTO 36009KT 9999 NCD 02/01 Q1045
  • 052020Z AUTO 35008KT 9999 NCD 02/M00 Q1045
  • 051950Z AUTO 31007KT 9999 NCD 04/02 Q1045

TAF TAF EGMD
Valid from the 05 at 21:00 until the 06 at 06:00 UTC


052005Z 0521/0606 36007KT CAVOK
TEMPO 0600/0606 7000
PROB30 0604/0606 0300 FG VV///
ATIS : +44 1797 322 422



MET'MAP, your aeronautical weather chart ! - Copyright ORBIFLY December 2007 - Disclaimer

ORBIFLY MET'MAP TEAM :

Programming & Development : Alexandra Zaïnal
Original concept : Baudouin d'Aumeries
Technical & hardware support : Manuel Goepfert
Assistance : Marc-Olivier Méhu




SOURCES & CREDITS :

   NOAA